DW5194 Weather Reports


Display with metric or nautical units.
time (UTC)temp
F
wind
direction
speed
MPH
gust
MPH
rain 1hr
in
rain 24hr
in
rain mn
in
humidity
%
barometer
mb
20190419001906 59 302 5.0 6.0 0.00 0.00 0.00 35 1028.1
20190419000906 59 18 3.0 6.0 0.00 0.00 0.00 35 1028.1
20190419000406 59 22 2.0 6.0 0.00 0.00 0.00 34 1028.1
20190418235405 59 45 4.0 6.0 0.00 0.00 0.00 33 1028.1
20190418234906 59 26 5.0 6.0 0.00 0.00 0.00 32 1028.1
20190418234406 59 45 5.0 6.0 0.00 0.00 0.00 32 1028.1
20190418233906 59 27 3.0 6.0 0.00 0.00 0.00 30 1028.1
20190418233405 59 45 3.0 6.0 0.00 0.00 0.00 30 1028.1
20190418232406 59 0 2.0 2.0 0.00 0.00 0.00 26 1028.1
20190418231406 60 0 2.0 3.0 0.00 0.00 0.00 26 1028.1
20190418230906 60 0 1.0 2.0 0.00 0.00 0.00 26 1028.1
20190418230407 60 0 1.0 1.0 0.00 0.00 0.00 26 1028.1
20190418225406 60 0 2.0 2.0 0.00 0.00 0.00 26 1027.1
20190418224905 60 0 2.0 2.0 0.00 0.00 0.00 26 1027.1
20190418223406 60 0 1.0 2.0 0.00 0.00 0.00 26 1027.1
20190418222406 59 0 1.0 2.0 0.00 0.00 0.00 26 1027.1
20190418221406 59 0 2.0 2.0 0.00 0.00 0.00 27 1027.1
20190418220905 59 0 2.0 2.0 0.00 0.00 0.00 30 1027.1
20190418220407 59 0 2.0 2.0 0.00 0.00 0.00 30 1027.1
20190418215905 59 0 1.0 2.0 0.00 0.00 0.00 30 1027.1
20190418215406 59 338 1.0 2.0 0.00 0.00 0.00 30 1027.1
20190418214906 59 338 2.0 2.0 0.00 0.00 0.00 30 1027.1
20190418214406 59 158 2.0 2.0 0.00 0.00 0.00 30 1027.1
20190418213906 59 158 2.0 2.0 0.00 0.00 0.00 30 1027.1
20190418212906 59 158 2.0 2.0 0.00 0.00 0.00 30 1027.1
20190418212405 59 158 2.0 2.0 0.00 0.00 0.00 30 1027.1
20190418211406 59 158 2.0 2.0 0.00 0.00 0.00 30 1026.1
20190418210906 59 158 2.0 2.0 0.00 0.00 0.00 30 1026.1
20190418210406 59 158 1.0 2.0 0.00 0.00 0.00 30 1026.1
20190418204906 59 158 0.0 1.0 0.00 0.00 0.00 30 1026.1
20190418204406 59 158 0.0 1.0 0.00 0.00 0.00 30 1026.1
20190418203905 59 158 0.0 1.0 0.00 0.00 0.00 30 1026.1
20190418202405 59 158 1.0 1.0 0.00 0.00 0.00 30 1026.1
20190418201406 60 135 2.0 2.0 0.00 0.00 0.00 30 1026.1
20190418200906 59 145 1.0 2.0 0.00 0.00 0.00 30 1026.1
20190418200406 59 158 1.0 1.0 0.00 0.00 0.00 30 1026.1
20190418195906 60 158 1.0 1.0 0.00 0.00 0.00 30 1026.1
20190418195406 60 158 1.0 5.0 0.00 0.00 0.00 30 1026.1
20190418194905 60 68 1.0 1.0 0.00 0.00 0.00 30 1026.1
20190418194405 60 68 1.0 1.0 0.00 0.00 0.00 30 1026.1
20190418193906 60 100 1.0 2.0 0.00 0.00 0.00 30 1026.1
20190418193405 60 68 1.0 2.0 0.00 0.00 0.00 30 1026.1
20190418192906 60 68 1.0 2.0 0.00 0.00 0.00 30 1025.1
20190418192406 60 68 1.0 2.0 0.00 0.00 0.00 30 1025.1
20190418191906 60 68 1.0 2.0 0.00 0.00 0.00 30 1025.1
20190418191407 60 45 1.0 1.0 0.00 0.00 0.00 30 1025.1
20190418190906 60 45 1.0 2.0 0.00 0.00 0.00 30 1025.1
20190418185905 60 68 1.0 2.0 0.00 0.00 0.00 30 1025.1
20190418184906 60 68 1.0 2.0 0.00 0.00 0.00 30 1025.1
20190418184405 60 68 1.0 2.0 0.00 0.00 0.00 30 1025.1
20190418183906 61 68 1.0 3.0 0.00 0.00 0.00 30 1025.1
20190418183405 61 68 1.0 2.0 0.00 0.00 0.00 30 1025.1
20190418182906 61 68 2.0 2.0 0.00 0.00 0.00 30 1025.1
20190418181406 62 68 1.0 2.0 0.00 0.00 0.00 30 1025.1
20190418180906 62 68 1.0 2.0 0.00 0.00 0.00 30 1025.1
20190418180406 62 68 2.0 3.0 0.00 0.00 0.00 29 1025.1
20190418175906 62 68 2.0 3.0 0.00 0.00 0.00 29 1024.0
20190418175406 62 68 2.0 2.0 0.00 0.00 0.00 28 1024.0
20190418174906 63 68 1.0 5.0 0.00 0.00 0.00 27 1024.0
20190418174406 63 135 1.0 2.0 0.00 0.00 0.00 26 1024.0
20190418173406 64 68 3.0 2.0 0.00 0.00 0.00 26 1024.0
20190418172906 64 68 3.0 5.0 0.00 0.00 0.00 26 1024.0
20190418172406 64 90 3.0 6.0 0.00 0.00 0.00 26 1024.0
20190418171905 64 68 3.0 3.0 0.00 0.00 0.00 26 1024.0
20190418171406 64 68 3.0 5.0 0.00 0.00 0.00 26 1024.0
20190418165906 65 68 3.0 5.0 0.00 0.00 0.00 26 1024.0
20190418165405 65 68 3.0 6.0 0.00 0.00 0.00 26 1024.0
20190418164905 65 93 5.0 5.0 0.00 0.00 0.00 26 1024.0
20190418164406 65 68 3.0 7.0 0.00 0.00 0.00 26 1024.0
20190418163906 65 68 3.0 5.0 0.00 0.00 0.00 26 1024.0
20190418163406 65 68 3.0 5.0 0.00 0.00 0.00 26 1024.0
20190418162906 65 57 3.0 6.0 0.00 0.00 0.00 26 1024.0
20190418162406 66 68 3.0 5.0 0.00 0.00 0.00 26 1024.0
20190418161906 66 112 3.0 6.0 0.00 0.00 0.00 26 1024.0
20190418161406 66 68 2.0 5.0 0.00 0.00 0.00 26 1024.0
20190418160906 66 68 2.0 5.0 0.00 0.00 0.00 26 1024.0
20190418160406 66 68 3.0 7.0 0.00 0.00 0.00 26 1024.0
20190418155906 66 112 3.0 7.0 0.00 0.00 0.00 26 1024.0
20190418155406 66 68 3.0 5.0 0.00 0.00 0.00 26 1024.0
20190418154905 67 134 3.0 5.0 0.00 0.00 0.00 26 1024.0
20190418154406 66 90 5.0 7.0 0.00 0.00 0.00 26 1024.0
20190418153905 66 68 5.0 7.0 0.00 0.00 0.00 26 1024.0
20190418152906 67 68 5.0 8.0 0.00 0.00 0.00 26 1024.0
20190418152406 67 45 3.0 6.0 0.00 0.00 0.00 26 1024.0
20190418151906 67 158 3.0 6.0 0.00 0.00 0.00 26 1024.0
20190418151406 67 115 3.0 8.0 0.00 0.00 0.00 26 1024.0
20190418145406 67 92 5.0 7.0 0.00 0.00 0.00 26 1024.0
20190418143905 67 112 3.0 7.0 0.00 0.00 0.00 26 1024.0
20190418143406 66 49 3.0 7.0 0.00 0.00 0.00 26 1024.0
20190418142906 66 68 3.0 5.0 0.00 0.00 0.00 26 1024.0
20190418142406 67 71 3.0 6.0 0.00 0.00 0.00 26 1024.0
20190418141406 68 48 2.0 3.0 0.00 0.00 0.00 26 1024.0
20190418134906 69 135 3.0 5.0 0.00 0.00 0.00 26 1024.0
20190418133406 68 69 3.0 7.0 0.00 0.00 0.00 26 1024.0
20190418132905 68 45 3.0 6.0 0.00 0.00 0.00 26 1024.0
20190418132405 68 45 3.0 6.0 0.00 0.00 0.00 26 1024.0
20190418131905 68 111 3.0 5.0 0.00 0.00 0.00 26 1024.0
20190418131406 68 135 3.0 5.0 0.00 0.00 0.00 26 1024.0
20190418130905 68 68 3.0 7.0 0.00 0.00 0.00 26 1024.0
20190418130406 68 45 3.0 6.0 0.00 0.00 0.00 26 1024.0
20190418125906 68 111 2.0 6.0 0.00 0.00 0.00 26 1024.0
20190418125406 68 112 3.0 6.0 0.00 0.00 0.00 26 1024.0
20190418124906 67 113 3.0 7.0 0.00 0.00 0.00 26 1024.0
20190418123906 68 70 3.0 7.0 0.00 0.00 0.00 26 1024.0
20190418122406 68 112 2.0 5.0 0.00 0.00 0.00 26 1025.1
20190418121906 69 68 2.0 6.0 0.00 0.00 0.00 26 1025.1
20190418121406 67 68 3.0 6.0 0.00 0.00 0.00 26 1025.1
20190418115905 68 68 3.0 6.0 0.00 0.00 0.00 26 1025.1
20190418115406 68 135 3.0 6.0 0.00 0.00 0.00 26 1025.1
20190418114905 68 114 3.0 6.0 0.00 0.00 0.00 26 1025.1
20190418113906 68 106 2.0 5.0 0.00 0.00 0.00 26 1025.1
20190418113406 67 68 3.0 7.0 0.00 0.00 0.00 26 1025.1
20190418112906 68 155 3.0 7.0 0.00 0.00 0.00 26 1025.1
20190418111906 67 68 5.0 7.0 0.00 0.00 0.00 26 1025.1
20190418111406 66 112 5.0 8.0 0.00 0.00 0.00 26 1025.1
20190418110906 66 48 5.0 8.0 0.00 0.00 0.00 26 1025.1
20190418105906 66 60 5.0 8.0 0.00 0.00 0.00 26 1025.1
20190418105406 67 68 3.0 8.0 0.00 0.00 0.00 26 1025.1
20190418104406 66 68 3.0 3.0 0.00 0.00 0.00 26 1025.1
20190418103406 66 135 4.0 6.0 0.00 0.00 0.00 26 1025.1
20190418102906 66 69 3.0 8.0 0.00 0.00 0.00 26 1025.1
20190418101906 66 68 3.0 7.0 0.00 0.00 0.00 26 1025.1
20190418095905 65 132 5.0 9.0 0.00 0.00 0.00 26 1025.1
20190418095406 65 68 3.0 6.0 0.00 0.00 0.00 26 1025.1
20190418094406 64 315 5.0 6.0 0.00 0.00 0.00 26 1025.1
20190418093406 64 22 6.0 12.0 0.00 0.00 0.00 26 1025.1
20190418092906 64 86 5.0 12.0 0.00 0.00 0.00 26 1025.1
20190418092406 64 112 5.0 6.0 0.00 0.00 0.00 26 1025.1
20190418091906 65 45 5.0 13.0 0.00 0.00 0.00 26 1025.1
20190418091406 65 68 5.0 7.0 0.00 0.00 0.00 27 1025.1
20190418090905 64 72 5.0 6.0 0.00 0.00 0.00 26 1025.1
20190418085406 63 68 6.0 7.0 0.00 0.00 0.00 27 1025.1
20190418083909 62 106 5.0 7.0 0.00 0.00 0.00 29 1025.1
20190418083406 62 90 6.0 7.0 0.00 0.00 0.00 29 1025.1
20190418082906 61 65 7.0 7.0 0.00 0.00 0.00 29 1025.1
20190418082406 61 68 7.0 7.0 0.00 0.00 0.00 29 1025.1
20190418081905 61 71 6.0 10.0 0.00 0.00 0.00 30 1025.1
20190418081406 61 68 6.0 9.0 0.00 0.00 0.00 29 1025.1
20190418080905 61 68 6.0 7.0 0.00 0.00 0.00 31 1025.1
20190418080406 61 90 5.0 7.0 0.00 0.00 0.00 31 1025.1
20190418075906 61 75 7.0 9.0 0.00 0.00 0.00 31 1024.0
20190418075406 60 68 7.0 10.0 0.00 0.00 0.00 30 1024.0
20190418074906 60 26 7.0 12.0 0.00 0.00 0.00 30 1024.0
20190418074406 60 68 8.0 12.0 0.00 0.00 0.00 30 1024.0
20190418073906 59 50 9.0 13.0 0.00 0.00 0.00 30 1024.0
20190418073405 59 45 9.0 13.0 0.00 0.00 0.00 30 1024.0
20190418072905 59 63 9.0 14.0 0.00 0.00 0.00 30 1024.0
20190418072405 59 45 8.0 12.0 0.00 0.00 0.00 30 1024.0
20190418071906 59 27 8.0 14.0 0.00 0.00 0.00 31 1024.0
20190418071406 59 68 8.0 10.0 0.00 0.00 0.00 32 1024.0
20190418070905 58 40 9.0 12.0 0.00 0.00 0.00 31 1024.0
20190418070405 58 68 9.0 12.0 0.00 0.00 0.00 31 1024.0
20190418065905 58 68 8.0 12.0 0.00 0.00 0.00 32 1024.0
20190418065406 57 45 9.0 10.0 0.00 0.00 0.00 32 1024.0
20190418064905 57 68 9.0 10.0 0.00 0.00 0.00 32 1024.0
20190418064405 57 45 9.0 10.0 0.00 0.00 0.00 32 1024.0
20190418063905 57 55 9.0 10.0 0.00 0.00 0.00 32 1024.0
20190418063406 57 68 9.0 12.0 0.00 0.00 0.00 32 1024.0
20190418061905 57 45 9.0 13.0 0.00 0.00 0.00 33 1024.0
20190418060406 57 68 9.0 9.0 0.00 0.00 0.00 33 1024.0
20190418055905 57 68 9.0 13.0 0.00 0.00 0.00 33 1024.0
20190418055406 56 45 9.0 13.0 0.00 0.00 0.00 31 1024.0
20190418054906 56 60 9.0 13.0 0.00 0.00 0.00 32 1024.0
20190418054405 56 45 10.0 14.0 0.00 0.00 0.00 32 1024.0
20190418053906 56 53 9.0 13.0 0.00 0.00 0.00 33 1024.0
20190418053406 56 68 10.0 13.0 0.00 0.00 0.00 33 1024.0
20190418052906 56 45 10.0 14.0 0.00 0.00 0.00 33 1023.0
20190418051406 56 45 10.0 14.0 0.00 0.00 0.00 34 1023.0
20190418050406 55 45 9.0 12.0 0.00 0.00 0.00 34 1023.0
20190418045406 55 45 10.0 12.0 0.00 0.00 0.00 35 1023.0
20190418044406 56 22 10.0 13.0 0.00 0.00 0.00 35 1023.0
20190418043906 56 31 12.0 13.0 0.00 0.00 0.00 34 1023.0
20190418043405 56 45 11.0 13.0 0.00 0.00 0.00 34 1023.0
20190418042905 56 50 10.0 14.0 0.00 0.00 0.00 35 1023.0
20190418042405 56 45 10.0 13.0 0.00 0.00 0.00 35 1023.0
20190418041906 56 49 10.0 13.0 0.00 0.00 0.00 35 1023.0
20190418041405 56 22 11.0 13.0 0.00 0.00 0.00 35 1023.0
20190418035906 56 45 12.0 14.0 0.00 0.00 0.00 37 1023.0
20190418034905 56 45 12.0 16.0 0.00 0.00 0.00 37 1023.0
20190418033906 56 45 12.0 15.0 0.00 0.00 0.00 38 1023.0
20190418033406 56 90 12.0 15.0 0.00 0.00 0.00 38 1023.0
20190418032905 56 56 12.0 13.0 0.00 0.00 0.00 39 1023.0
20190418032405 56 45 12.0 14.0 0.00 0.00 0.00 40 1023.0
20190418031406 56 45 12.0 16.0 0.00 0.00 0.00 40 1023.0
20190418030905 56 33 12.0 15.0 0.00 0.00 0.00 40 1023.0
20190418030406 56 68 12.0 15.0 0.00 0.00 0.00 40 1023.0
20190418025405 56 68 13.0 15.0 0.00 0.00 0.00 40 1023.0
20190418024905 56 34 13.0 17.0 0.00 0.00 0.00 40 1023.0
20190418023406 56 45 13.0 16.0 0.00 0.00 0.00 41 1023.0
20190418022905 56 68 12.0 14.0 0.00 0.00 0.00 43 1023.0
20190418022405 56 45 13.0 16.0 0.00 0.00 0.00 43 1023.0
20190418020405 57 45 12.0 18.0 0.00 0.00 0.00 45 1023.0
20190418015905 57 22 12.0 14.0 0.00 0.00 0.00 46 1022.0
20190418015405 56 48 12.0 16.0 0.00 0.00 0.00 47 1022.0
20190418014906 56 22 12.0 12.0 0.00 0.00 0.00 48 1022.0
20190418013906 57 45 12.0 16.0 0.00 0.00 0.00 48 1022.0
20190418013406 56 22 12.0 14.0 0.00 0.00 0.00 48 1022.0
20190418012905 56 68 12.0 14.0 0.00 0.00 0.00 47 1022.0
20190418011906 57 22 13.0 18.0 0.00 0.00 0.00 47 1022.0
20190418011405 57 48 13.0 21.0 0.00 0.00 0.00 46 1022.0
20190418010906 57 90 13.0 21.0 0.00 0.00 0.00 46 1022.0
20190418010406 57 87 12.0 21.0 0.00 0.00 0.00 46 1022.0
20190418005905 57 45 12.0 16.0 0.00 0.00 0.00 45 1022.0
20190418004905 57 45 12.0 15.0 0.00 0.00 0.00 44 1022.0
20190418004405 57 22 12.0 17.0 0.00 0.00 0.00 44 1022.0
20190418003905 57 45 12.0 14.0 0.00 0.00 0.00 44 1022.0
20190418003406 57 67 12.0 15.0 0.00 0.00 0.00 43 1022.0
20190418002905 57 45 12.0 10.0 0.00 0.00 0.00 41 1022.0